DateTimeUTC,F1_A11,F1_S11,BsB_S11,BsG_S11,BsR_S11,BbsB_S11,BbsG_S11,BbsR_S11,BaB_A11,BaG_A11,BaR_A11,Tu_S11,T_S11,Uu_S11,U_S11,P_S11,T1_A11
2021-07-30T19:00:00Z,00000200,20000000,,,,,,,0000.33,0000.10,0000.46,21.3,27.9,08.8,05.9,0683.2,32.0
2021-07-30T19:01:00Z,00000200,20000000,,,,,,,-000.22,-000.12,-000.19,21.3,27.9,08.8,05.9,0683.1,32.0
2021-07-30T19:02:00Z,00000200,20000000,,,,,,,0000.14,-000.13,0000.05,21.3,27.9,08.8,05.9,0683.1,32.1
2021-07-30T19:03:00Z,00000200,60000000,,,,,,,0001.01,0000.92,0000.70,21.3,27.9,08.8,05.9,0683.1,32.1
2021-07-30T19:04:00Z,00000200,40000000,0006.45,0004.70,0002.62,0001.43,0000.82,0000.27,0001.86,0001.63,0001.35,21.4,27.8,08.7,05.9,0684.0,32.0
2021-07-30T19:05:00Z,00000200,00000000,0007.57,0004.82,0002.87,0000.83,0000.54,0000.14,0001.62,0001.52,0001.00,21.5,27.7,08.7,06.0,0684.1,32.0
2021-07-30T19:06:00Z,00000200,00000000,0008.55,0005.72,0003.30,0001.03,0000.60,0000.49,0001.85,0002.05,0001.20,21.5,27.7,08.7,06.0,0684.1,32.0
2021-07-30T19:07:00Z,00000200,00000000,0007.45,0004.87,0002.96,0001.19,0000.73,0000.59,0001.71,0001.47,0001.36,21.4,27.7,08.8,06.1,0684.1,32.0
2021-07-30T19:08:00Z,00000200,00000000,0007.03,0005.12,0003.14,0000.66,0000.55,0000.25,0001.89,0001.34,0001.19,21.4,27.7,08.8,06.1,0684.1,32.0
2021-07-30T19:09:00Z,00000200,00000000,0007.35,0005.06,0002.79,0001.03,0000.46,0000.63,0001.62,0001.46,0000.93,21.4,27.7,09.0,06.2,0684.1,32.0
2021-07-30T19:10:00Z,00000200,00000000,0007.78,0005.81,0003.38,0000.99,0000.78,0000.43,0001.79,0002.04,0001.48,21.5,27.7,09.0,06.2,0684.0,32.0
2021-07-30T19:11:00Z,00000200,00000000,0007.88,0005.17,0003.30,0001.17,0000.45,0000.85,0001.74,0001.45,0001.06,21.4,27.7,08.7,06.0,0684.0,32.0
2021-07-30T19:12:00Z,00000200,00000000,0007.42,0004.93,0002.32,0000.80,0000.46,0000.39,0001.72,0001.38,0001.11,21.4,27.7,08.6,06.0,0684.0,32.0
2021-07-30T19:13:00Z,00000200,00000000,0008.85,0005.71,0003.42,0000.79,0000.79,0000.40,0001.93,0001.79,0001.01,21.4,27.7,08.6,06.0,0684.0,32.0
2021-07-30T19:14:00Z,00000200,00000000,0007.40,0006.02,0003.32,0001.23,0000.57,0000.55,0002.18,0001.75,0001.63,21.4,27.7,08.7,06.0,0684.0,32.0
2021-07-30T19:15:00Z,00000200,00000000,0008.39,0006.13,0003.18,0001.17,0000.50,0000.57,0001.81,0001.59,0001.06,21.4,27.7,08.8,06.1,0684.0,32.0
2021-07-30T19:16:00Z,00000200,00000000,0008.20,0005.27,0002.82,0001.55,0000.88,0000.44,0002.02,0002.12,0001.58,21.4,27.7,08.9,06.2,0684.0,32.0
2021-07-30T19:17:00Z,00000200,00000000,0007.40,0005.48,0002.76,0000.72,0000.68,0000.10,0001.57,0001.45,0001.02,21.4,27.7,08.9,06.1,0684.0,32.0
2021-07-30T19:18:00Z,00000200,00000000,0007.58,0005.32,0003.04,0001.26,0000.54,0000.41,0001.83,0001.78,0001.17,21.4,27.7,08.8,06.1,0684.0,32.0
2021-07-30T19:19:00Z,00000200,00000000,0006.60,0004.82,0002.37,0000.76,0000.51,0000.16,0001.60,0001.17,0001.22,21.4,27.7,08.8,06.1,0684.0,32.0
2021-07-30T19:20:00Z,00000200,00000000,0008.48,0006.02,0003.68,0002.01,0000.66,0000.77,0002.09,0002.24,0001.31,21.4,27.6,09.0,06.2,0684.0,32.0
2021-07-30T19:21:00Z,00000200,00000000,0008.52,0006.25,0003.37,0001.63,0000.42,0000.31,0002.10,0001.87,0001.50,21.5,27.7,09.1,06.3,0684.0,32.1
2021-07-30T19:22:00Z,00000200,00000000,0008.49,0005.82,0003.33,0000.96,0000.99,0000.55,0002.21,0001.58,0001.28,21.4,27.6,09.1,06.3,0684.0,32.1
2021-07-30T19:23:00Z,00000200,00000000,0008.79,0005.90,0002.89,0001.68,0000.90,0000.52,0001.98,0001.80,0001.33,21.4,27.6,09.0,06.2,0684.0,32.0
2021-07-30T19:24:00Z,00000200,00000000,0007.97,0005.62,0003.18,0000.76,0000.79,0000.45,0001.95,0001.68,0001.26,21.5,27.6,09.0,06.2,0684.0,32.0
2021-07-30T19:25:00Z,00000200,00000000,0008.56,0005.79,0003.60,0001.93,0000.41,0000.87,0001.59,0001.62,0001.12,21.4,27.6,08.9,06.2,0684.0,32.0
2021-07-30T19:26:00Z,00000200,00000000,0007.22,0005.10,0002.61,0000.83,0000.64,0000.60,0001.86,0001.60,0001.28,21.4,27.6,08.9,06.1,0684.0,32.0
2021-07-30T19:27:00Z,00000200,00000000,0007.22,0005.20,0002.99,0001.14,0000.54,0000.49,0001.34,0001.42,0001.03,21.4,27.6,09.0,06.2,0684.0,32.0
2021-07-30T19:28:00Z,00000200,00000000,0006.71,0004.66,0002.55,0001.61,0000.81,0000.25,0001.83,0001.69,0001.02,21.4,27.6,08.9,06.1,0684.0,32.0
2021-07-30T19:29:00Z,00000200,00000000,0007.10,0004.06,0002.40,0001.29,0000.65,0000.70,0001.30,0001.41,0000.81,21.4,27.6,08.8,06.1,0684.0,32.0
2021-07-30T19:30:00Z,00000200,00000000,0006.89,0004.71,0002.62,0000.78,0000.71,0000.46,0001.89,0001.18,0001.34,21.4,27.6,08.9,06.1,0684.0,32.0
2021-07-30T19:31:00Z,00000200,00000000,0006.52,0004.32,0002.70,0001.30,0000.54,0000.23,0001.57,0001.48,0001.14,21.4,27.6,08.8,06.1,0684.0,32.0
2021-07-30T19:32:00Z,00000200,00000000,0007.01,0005.09,0002.84,0001.36,0000.91,0000.61,0001.87,0001.48,0001.10,21.4,27.6,08.8,06.1,0684.0,32.0
2021-07-30T19:33:00Z,00000200,00000000,0006.49,0004.06,0002.14,0000.67,0000.59,0000.24,0001.09,0001.15,0000.47,21.4,27.6,08.8,06.0,0684.0,32.0
2021-07-30T19:34:00Z,00000200,00000000,0005.85,0004.38,0002.52,0000.45,0000.32,0000.43,0001.24,0001.07,0001.17,21.4,27.6,08.6,05.9,0684.0,32.0
2021-07-30T19:35:00Z,00000200,00000000,0005.72,0004.04,0002.32,0000.36,0000.60,0000.43,0001.45,0001.39,0000.75,21.4,27.6,08.5,05.9,0684.0,32.0
2021-07-30T19:36:00Z,00000200,00000000,0005.46,0004.80,0002.15,0001.01,0000.42,0000.48,0001.45,0001.29,0000.94,21.4,27.6,08.5,05.8,0684.0,32.0
2021-07-30T19:37:00Z,00000200,00000000,0006.51,0004.26,0002.86,0000.71,0000.62,0000.41,0001.53,0001.27,0000.94,21.4,27.6,08.6,05.9,0684.0,32.0
2021-07-30T19:38:00Z,00000200,00000000,0005.75,0003.97,0002.22,0001.46,0000.60,0000.59,0001.33,0001.32,0001.05,21.4,27.6,08.4,05.8,0684.0,32.0
2021-07-30T19:39:00Z,00000200,00000000,0006.32,0004.18,0002.38,0001.47,0000.29,0000.44,0001.87,0001.44,0001.13,21.4,27.6,08.5,05.8,0684.0,32.0
2021-07-30T19:40:00Z,00000200,00000000,0008.04,0005.02,0003.08,0001.04,0000.81,0000.46,0001.31,0001.64,0001.13,21.4,27.6,08.7,06.0,0684.0,32.0
2021-07-30T19:41:00Z,00000200,00000000,0007.12,0005.03,0002.52,0000.95,0000.22,0000.03,0001.94,0001.61,0000.84,21.4,27.6,08.7,06.0,0683.9,32.0
2021-07-30T19:42:00Z,00000200,00000000,0007.38,0005.12,0002.74,0001.05,0000.68,0000.12,0001.79,0001.42,0001.58,21.4,27.6,08.8,06.1,0684.0,32.0
2021-07-30T19:43:00Z,00000200,00000000,0007.96,0005.32,0003.10,0001.08,0000.68,0000.54,0002.11,0001.79,0001.03,21.4,27.6,09.0,06.2,0683.9,32.0
2021-07-30T19:44:00Z,00000200,00000000,0007.28,0005.06,0002.95,0000.46,0000.43,0000.44,0001.41,0001.61,0001.24,21.4,27.6,09.0,06.2,0683.9,32.0
2021-07-30T19:45:00Z,00000200,00000000,0006.09,0004.51,0002.34,0001.51,0000.59,0000.23,0001.54,0001.28,0000.76,21.4,27.6,08.7,06.0,0683.9,32.0
2021-07-30T19:46:00Z,00000200,00000000,0005.24,0004.47,0002.40,0001.10,0000.25,0000.24,0001.28,0000.92,0000.85,21.3,27.6,08.5,05.9,0683.9,32.0
2021-07-30T19:47:00Z,00000200,00000000,0005.78,0003.64,0002.19,0001.21,0000.57,0000.20,0001.08,0001.23,0000.74,21.3,27.6,08.5,05.9,0683.9,32.0
2021-07-30T19:48:00Z,00000200,00000000,0006.05,0003.54,0002.35,0000.62,0000.72,0000.41,0001.38,0001.27,0000.92,21.3,27.6,08.4,05.8,0683.9,32.0
2021-07-30T19:49:00Z,00000200,00000000,0006.01,0004.45,0002.22,0000.97,0000.51,0000.35,0001.47,0001.22,0001.49,21.3,27.6,08.5,05.9,0683.9,32.0
2021-07-30T19:50:00Z,00000200,00000000,0006.07,0004.04,0002.21,0000.45,0000.39,0000.37,0001.60,0001.49,0000.70,21.3,27.6,08.5,05.9,0683.9,32.0
2021-07-30T19:51:00Z,00000200,00000000,0006.66,0005.10,0002.71,0000.72,0000.53,0000.35,0001.67,0001.62,0001.38,21.4,27.6,08.6,05.9,0683.9,32.0
2021-07-30T19:52:00Z,00000200,00000000,0007.07,0005.51,0003.07,0001.60,0000.62,0000.91,0001.84,0001.93,0001.16,21.3,27.6,08.7,06.0,0683.9,32.0
2021-07-30T19:53:00Z,00000200,00000000,0007.77,0005.20,0002.77,0001.40,0000.69,0000.57,0001.73,0001.28,0000.59,21.4,27.6,08.6,05.9,0683.9,32.0
2021-07-30T19:54:00Z,00000200,00000000,0006.89,0004.25,0002.54,0000.38,0000.43,0000.36,0001.61,0001.11,0001.26,21.3,27.6,08.7,06.0,0683.8,32.0
2021-07-30T19:55:00Z,00000200,00000000,0006.85,0004.96,0002.57,0001.00,0000.65,0000.39,0001.81,0001.75,0001.05,21.3,27.6,08.7,06.0,0683.8,32.0
2021-07-30T19:56:00Z,00000200,00000000,0008.29,0005.66,0003.06,0001.51,0000.82,0000.69,0001.54,0001.57,0001.37,21.3,27.6,08.7,06.0,0683.8,32.0
2021-07-30T19:57:00Z,00000200,40000000,,,,,,,0000.64,0000.48,0000.12,21.4,27.6,09.4,06.5,0683.9,32.0
2021-07-30T19:58:00Z,00000200,60000000,,,,,,,-000.02,0000.11,0000.14,21.1,27.7,08.9,05.9,0682.8,32.0
2021-07-30T19:59:00Z,00000200,20000000,,,,,,,0000.07,-000.33,0000.08,21.1,27.8,08.8,05.9,0682.8,32.0
